MST,Max TemperatureF,Mean TemperatureF,Min TemperatureF,Max Dew PointF,MeanDew PointF,Min DewpointF,Max Humidity, Mean Humidity, Min Humidity, Max Sea Level PressureIn, Mean Sea Level PressureIn, Min Sea Level PressureIn, Max VisibilityMiles, Mean VisibilityMiles, Min VisibilityMiles, Max Wind SpeedMPH, Mean Wind SpeedMPH, Max Gust SpeedMPH,PrecipitationIn, CloudCover, Events, WindDirDegrees
2011-12-1,27,20,12,19,16,10,100,87,65,30.72,30.56,30.11,10,9,2,15,9,22,0.00,5,,272
2011-12-2,35,30,25,29,22,12,82,69,55,30.10,29.93,29.76,10,10,10,26,16,33,0.00,5,,282
2011-12-3,28,22,17,22,17,10,88,73,51,30.22,30.11,29.93,10,7,1,24,17,33,0.00,6,Snow,293
2011-12-4,26,16,6,25,13,3,93,80,68,30.66,30.22,29.89,10,3,0,29,17,39,0.00,8,Snow,314
2011-12-5,19,4,-11,8,0,-16,92,74,55,30.66,30.48,30.24,10,10,10,16,6,,0.00,2,,222
2011-12-6,34,23,12,21,12,0,72,59,50,30.21,30.05,29.86,10,10,10,22,13,21,0.00,2,,257
2011-12-7,30,24,16,28,22,9,93,85,68,30.31,30.15,30.03,10,7,2,22,7,31,0.02,8,Snow,321
2011-12-8,16,11,6,9,4,0,88,73,52,30.37,30.29,30.16,10,8,2,18,13,28,0.00,7,Snow,290
2011-12-9,30,12,-6,19,9,-8,91,73,53,30.41,30.31,30.19,10,10,10,14,7,,0.00,4,,255
2011-12-10,48,36,25,24,20,16,72,52,37,30.20,30.05,29.87,10,10,10,20,14,24,0.00,0,,255
2011-12-11,39,29,19,22,19,15,88,71,48,30.12,29.98,29.87,10,10,10,9,4,,0.00,0,,344
2011-12-12,21,16,12,19,18,9,96,91,85,30.31,30.18,30.08,10,3,1,16,9,24,0.00,8,,116
2011-12-13,24,22,19,20,18,15,96,88,81,30.21,30.01,29.80,9,5,0,15,11,23,0.00,8,Fog,164
2011-12-14,30,19,8,24,13,3,92,82,64,30.17,29.87,29.73,10,5,0,25,5,36,0.00,6,Fog,247
2011-12-15,30,20,10,21,15,8,92,74,54,30.31,30.24,30.13,10,10,8,14,7,,0.00,5,Snow,198
2011-12-16,34,28,21,23,21,18,100,86,64,30.36,30.26,30.19,10,7,2,12,9,,0.00,5,,288
2011-12-17,46,34,21,27,23,17,85,63,47,30.28,30.16,29.96,10,10,10,14,10,21,0.00,0,,251
2011-12-18,51,39,27,30,25,22,89,66,35,30.19,29.95,29.78,10,10,10,21,13,29,0.00,3,,301
2011-12-19,34,26,18,23,17,13,88,71,44,30.40,30.27,30.07,10,10,10,14,8,,0.00,0,,246
2011-12-20,43,34,26,29,22,17,88,63,47,30.04,29.81,29.69,10,10,4,23,14,29,0.00,1,Snow,269
2011-12-21,33,22,8,31,27,6,100,93,80,30.43,29.90,29.71,10,5,1,24,8,30,0.06,7,Snow,310
2011-12-22,26,16,5,19,13,2,88,78,66,30.48,30.36,30.19,10,10,10,20,10,28,0.00,2,,244
2011-12-23,37,28,19,20,15,12,71,61,50,30.26,30.19,30.12,10,10,10,18,13,,0.00,0,,271
2011-12-24,39,32,21,23,18,13,88,60,47,30.43,30.30,30.24,10,10,10,17,13,24,0.00,0,,262
2011-12-25,45,30,15,29,21,12,89,69,47,30.44,30.19,29.78,10,10,10,15,5,,0.00,0,,212
2011-12-26,42,33,21,25,20,16,78,57,42,30.16,29.97,29.79,10,10,10,32,16,43,0.00,3,,285
2011-12-27,42,27,12,22,18,9,88,69,40,30.16,29.99,29.87,10,10,10,23,7,28,0.00,2,,234
2011-12-28,55,37,19,29,25,17,89,60,37,29.87,29.74,29.60,10,10,10,31,10,41,0.00,3,,257
2011-12-29,46,38,30,34,29,25,85,67,46,29.77,29.58,29.48,10,10,10,32,12,50,0.00,5,Rain,274
2011-12-30,46,34,23,37,27,19,100,74,34,29.85,29.66,29.49,10,9,5,20,10,24,0.24,4,Rain,269
2011-12-31,37,32,27,37,27,12,100,75,53,30.33,29.83,29.51,10,9,4,22,12,31,0.13,5,Rain,295